Flag for Switzerland Weather past 2 weeks in Thun, Bern, Switzerland

Now
43 °F

Quite cool.


Feels Like: 43 °F
Forecast: 41 / 66 °F
Wind: 1 mph from North

Location: Bern / Belp

Current Time: Sep 24, 2014 at 1:21:45 AM

Latest Report: Sep 24, 2014 at 12:50 AM


Visibility: 4 mi

Pressure: 30.04 "Hg

Humidity: 100%

Dew point: 43 °F

Location of ThunLocation

Historic Weather in Thun — Graph

°F

Thun temperature yesterday

Maximum temperature yesterday: 63 °F (at 3:20 PM)
Minimum temperature yesterday: 39 °F (at 7:20 AM)
Average temperature yesterday: 50 °F

Past Weeks' High & Low Weather Summary

 TemperatureHumidityPressure
High77 °F (Sep 16, 3:20 PM)100% (Sep 9, 12:50 AM)30.15 "Hg (Sep 9, 12:50 AM)
Low39 °F (Sep 23, 7:20 AM)45% (Sep 23, 3:20 PM)29.86 "Hg (Sep 17, 2:50 PM)
Average59 °F83%30.02 "Hg
* Reported Sep 9 12:20 AM — Sep 24 12:20 AM, Thun, Weather by CustomWeather, © 2014

Note: Actual official high and low records may vary slightly from our data, if they occured in-between our weather recording intervals... More about our weather records

Advertising

Thun weather history for previous 24 hours

 ConditionsComfort  
Time TempWeatherWind HumidityBarometerVisibility
12:20 AM
Sep 24
43 °FQuite cool.1 mph100%30.07 "Hg5 mi
11:50 PM
Sep 23
45 °FQuite cool.No wind93%30.04 "Hg3 mi
11:20 PM45 °FQuite cool.No wind93%30.04 "Hg5 mi
10:50 PM46 °FCool.1 mph93%30.04 "Hg6 mi
10:20 PM45 °FQuite cool.1 mph100%30.04 "HgN/A
9:50 PM46 °FClear.No wind100%30.04 "Hg10 mi
9:20 PM48 °FClear.No wind94%30.04 "Hg10 mi
8:50 PM50 °FClear.No wind82%30.04 "Hg10 mi
8:20 PM52 °FSunny.No wind77%30.01 "Hg10 mi
7:50 PM55 °FSunny.2 mph72%30.01 "Hg10 mi
7:20 PM59 °FSunny.3 mph59%30.01 "Hg10 mi
6:50 PM59 °FSunny.2 mph59%30.01 "Hg10 mi
6:20 PM61 °FSunny.5 mph55%29.98 "Hg10 mi
5:50 PM61 °FPassing clouds.6 mph55%29.98 "HgN/A
5:20 PM63 °FPassing clouds.6 mph52%30.01 "HgN/A
4:50 PM63 °FPassing clouds.8 mph52%30.01 "HgN/A
4:20 PM63 °FSunny.6 mph49%30.01 "Hg10 mi
3:50 PM63 °FPassing clouds.7 mph49%30.01 "HgN/A
3:20 PM63 °FPassing clouds.6 mph45%30.01 "HgN/A
2:50 PM61 °FSunny.7 mph48%30.04 "Hg10 mi
2:20 PM61 °FPassing clouds.8 mph48%30.04 "HgN/A
1:50 PM61 °FPassing clouds.9 mph52%30.04 "HgN/A
1:20 PM59 °FSunny.7 mph59%30.04 "Hg10 mi
12:50 PM59 °FPassing clouds.6 mph59%30.07 "HgN/A
12:20 PM57 °FSunny.3 mph63%30.07 "Hg10 mi
11:50 AM55 °FSunny.3 mph72%30.09 "Hg10 mi
11:20 AM55 °FPassing clouds.6 mph67%30.09 "HgN/A
10:50 AM54 °FClear.5 mph67%30.09 "Hg5 mi
10:20 AM50 °FClear.1 mph76%30.12 "Hg5 mi
9:50 AM48 °FClear.2 mph82%30.12 "Hg4 mi
9:20 AM46 °FClear.3 mph87%30.12 "Hg4 mi
8:50 AM45 °FClear.2 mph87%30.12 "Hg4 mi
8:20 AM41 °FPassing clouds.1 mph100%30.15 "Hg4 mi
7:50 AM39 °FClear.2 mph93%30.12 "Hg4 mi
7:20 AM39 °FChilly.1 mph100%30.12 "Hg3 mi
6:50 AM41 °FClear.2 mph93%30.12 "Hg4 mi
6:20 AM41 °FClear.No wind93%30.12 "Hg4 mi
5:50 AM41 °FClear.1 mph93%30.12 "Hg4 mi
5:20 AM41 °FQuite cool.1 mph93%30.12 "Hg4 mi
4:50 AM43 °FQuite cool.1 mph93%30.12 "Hg5 mi
4:20 AM41 °FQuite cool.2 mph100%30.12 "Hg4 mi
3:50 AM43 °FQuite cool.1 mph93%30.12 "Hg6 mi
3:20 AM45 °FQuite cool.2 mph87%30.12 "Hg6 mi
2:50 AM43 °FQuite cool.2 mph93%30.12 "Hg6 mi
2:20 AM43 °FClear.2 mph87%30.12 "Hg10 mi
1:50 AM46 °FPassing clouds.3 mph82%30.09 "HgN/A
1:20 AM43 °FClear.2 mph93%30.09 "Hg10 mi
Weather by CustomWeather, © 2014

See weather overviewHow to use our weather pages